Home   Weather   Port Angeles   Past weeks

Flag for USA Past Weather in Port Angeles, Washington, USA — Yesterday and Last 2 Weeks

Now
32 °F

Clear.


Feels Like: 32 °F
Forecast: 39 / 45 °F
Wind: No wind

Location: William R. Fairchild International Airport

Current Time: Jan 22, 2017 at 6:19:57 am

Latest Report: Jan 22, 2017 at 5:53 am


Visibility: 10 mi

Pressure: 29.40 "Hg

Humidity: 100%

Dew Point: 32 °F

Location of Port AngelesLocation

Past Weather in Port Angeles — Graph

°F

Port Angeles Temperature Yesterday

Maximum temperature yesterday: 48 °F (at 2:53 pm)
Minimum temperature yesterday: 32 °F (at 11:53 pm)
Average temperature yesterday: 41 °F

High & Low Weather Summary for the Past Weeks

 TemperatureHumidityPressure
High51 °F (Jan 17, 10:53 pm)100% (Jan 8, 7:15 pm)30.47 "Hg (Jan 8, 7:15 pm)
Low20 °F (Jan 12, 4:53 am)47% (Jan 10, 6:53 pm)29.11 "Hg (Jan 20, 1:53 pm)
Average35 °F91%29.73 "Hg
* Reported Jan 7 4:53 am — Jan 22 4:53 am, Port Angeles, Weather by CustomWeather, © 2017

Note: Actual official high and low records may vary slightly from our data, if they occured in-between our weather recording intervals... More about our weather records

Advertising

Port Angeles Weather History for the Previous 24 Hours

Scroll right to see more
 ConditionsComfort  
Time TempWeatherWind HumidityBarometerVisibility
4:53 am
Sun, Jan 22
32 °FIce fog.No wind100%29.42 "Hg5 mi
4:33 am34 °FPassing clouds.5 mph100%29.43 "Hg7 mi
4:23 am34 °FLow clouds.5 mph97%29.43 "Hg7 mi
3:53 am31 °FIce fog.6 mph100%29.45 "Hg2 mi
3:34 am33 °FFog.No wind100%29.47 "Hg2 mi
2:53 am33 °FClear.No wind100%29.50 "Hg10 mi
1:53 am35 °FPassing clouds.7 mph100%29.52 "Hg10 mi
12:53 am32 °FPassing clouds.No wind96%29.54 "Hg10 mi
11:53 pm
Sat, Jan 21
32 °FClear.No wind100%29.55 "Hg10 mi
10:53 pm38 °FClear.5 mph97%29.54 "Hg10 mi
9:53 pm39 °FClear.10 mph96%29.53 "Hg10 mi
9:08 pm38 °FPassing clouds.7 mph97%29.53 "Hg10 mi
8:53 pm38 °FPassing clouds.7 mph100%29.53 "Hg10 mi
7:53 pm40 °FPassing clouds.5 mph97%29.52 "Hg10 mi
6:53 pm39 °FPassing clouds.8 mph96%29.50 "Hg10 mi
5:53 pm40 °FClear.6 mph97%29.48 "Hg10 mi
4:53 pm45 °FPassing clouds.No wind80%29.46 "Hg10 mi
3:53 pm47 °FPassing clouds.3 mph77%29.44 "Hg10 mi
2:53 pm48 °FScattered clouds.5 mph74%29.41 "Hg10 mi
1:53 pm47 °FScattered clouds.7 mph80%29.38 "Hg10 mi
12:53 pm45 °FPassing clouds.7 mph90%29.37 "Hg10 mi
11:53 am44 °FPassing clouds.3 mph89%29.36 "Hg10 mi
10:53 am41 °FSunny.5 mph93%29.35 "Hg10 mi
9:53 am42 °FOvercast.5 mph89%29.33 "Hg10 mi
9:37 am41 °FMostly cloudy.5 mph93%29.32 "Hg10 mi
9:03 am40 °FPartly sunny.7 mph89%29.30 "Hg10 mi
8:53 am39 °FBroken clouds.7 mph93%29.30 "Hg10 mi
7:53 am39 °FPassing clouds.8 mph93%29.28 "Hg10 mi
7:31 am40 °FPassing clouds.7 mph89%29.27 "Hg10 mi
6:53 am39 °FOvercast.7 mph93%29.26 "Hg10 mi
Weather by CustomWeather, © 2017

See weather overviewHow to use our weather pages